Location: Castifao
(42.5040°N, 9.1124°E)
Time: 04:21:41
(UTC+00:00)

H-2A ROCKET BODY - Pass Details

Date: 23 January 2020
Orbit: 242 x 15397 km, 28.6° (Epoch: 18 February)

Event Time Altitude Azimuth Distance (km) Brightness Sun altitude
Rises 18:05:23 0° 264° (W) 6,936 8.6 -18.4°
Reaches altitude 10° 18:13:30 10° 248° (WSW) 3,674 6.6 -19.9°
Maximum altitude 18:17:50 15° 216° (SW) 2,140 4.8 -20.7°
Drops below altitude 10° 18:20:18 10° 179° (S) 1,860 4.1 -21.1°
Enters shadow 18:21:03 - 167° (SSE) 1,936 4.0 -21.3°
